• In Portugal
  • List of Countries
  • For 7 days
  • Water Temperature
  • Satellite Maps
  • Weather Map
  • Weather Widgets
  • user-avatar
    Login

    Hourly Weather Mochudi

    Today, 11 December, Monday

    Time Temperature Precipitation Wind Pressure Humidity
    00:00 +27°C° 0 mm 3 mps 678 mmHg 45%
    01:00 +26°C° 0 mm 4 mps 678 mmHg 47%
    02:00 +26°C° 0 mm 4 mps 678 mmHg 48%
    03:00 +25°C° 0 mm 5 mps 678 mmHg 53%
    04:00 +25°C° 0 mm 5 mps 678 mmHg 58%
    05:00 +23°C° 0 mm 6 mps 678 mmHg 64%
    06:00 +24°C° 0 mm 6 mps 678 mmHg 62%
    07:00 +24°C° 0 mm 6 mps 679 mmHg 61%
    08:00 +26°C° 0 mm 6 mps 679 mmHg 60%
    09:00 +28°C° 0 mm 6 mps 679 mmHg 54%
    10:00 +30°C° 0 mm 6 mps 679 mmHg 48%
    11:00 +32°C° 0 mm 6 mps 679 mmHg 42%
    12:00 +34°C° 0 mm 6 mps 679 mmHg 36%
    13:00 +35°C° 0 mm 5 mps 679 mmHg 31%
    14:00 +37°C° 0 mm 4 mps 678 mmHg 25%
    15:00 +37°C° 0 mm 4 mps 678 mmHg 24%
    16:00 +37°C° 0 mm 3 mps 677 mmHg 23%
    17:00 +37°C° 0 mm 3 mps 677 mmHg 21%
    18:00 +36°C° 0 mm 3 mps 676 mmHg 23%
    19:00 +34°C° 0 mm 3 mps 676 mmHg 25%
    20:00 +33°C° 0 mm 3 mps 676 mmHg 27%
    21:00 +31°C° 0 mm 3 mps 676 mmHg 30%
    22:00 +30°C° 0 mm 4 mps 676 mmHg 33%
    23:00 +29°C° 0 mm 4 mps 677 mmHg 36%

    Tomorrow, 12 December, Tuesday

    Time Temperature Precipitation Wind Pressure Humidity
    00:00 +28°C° 0.2 mm 4 mps 677 mmHg 41%
    01:00 +27°C° 0.2 mm 4 mps 677 mmHg 47%
    02:00 +27°C° 0.2 mm 4 mps 677 mmHg 52%
    03:00 +26°C° 0 mm 4 mps 677 mmHg 54%
    04:00 +26°C° 0 mm 4 mps 677 mmHg 56%
    05:00 +25°C° 0 mm 3 mps 677 mmHg 58%
    06:00 +27°C° 0 mm 4 mps 677 mmHg 53%
    07:00 +29°C° 0 mm 5 mps 678 mmHg 49%
    08:00 +30°C° 0 mm 6 mps 678 mmHg 44%
    09:00 +33°C° 0 mm 6 mps 678 mmHg 38%
    10:00 +35°C° 0 mm 6 mps 678 mmHg 33%
    11:00 +39°C° 0 mm 6 mps 678 mmHg 27%
    12:00 +39°C° 0 mm 6 mps 678 mmHg 24%
    13:00 +40°C° 0 mm 6 mps 677 mmHg 21%
    14:00 +41°C° 0 mm 5 mps 677 mmHg 19%
    15:00 +40°C° 0.2 mm 5 mps 676 mmHg 21%
    16:00 +39°C° 0.2 mm 5 mps 675 mmHg 23%
    17:00 +37°C° 0.2 mm 4 mps 675 mmHg 25%
    18:00 +35°C° 0 mm 5 mps 675 mmHg 29%
    19:00 +33°C° 0 mm 5 mps 676 mmHg 33%
    20:00 +32°C° 0 mm 5 mps 676 mmHg 38%
    21:00 +30°C° 0.9 mm 5 mps 677 mmHg 43%
    22:00 +28°C° 0.9 mm 5 mps 677 mmHg 48%
    23:00 +27°C° 0.9 mm 5 mps 678 mmHg 53%

    Day after tomorrow, 13 December, Wednesday

    Time Temperature Precipitation Wind Pressure Humidity
    00:00 +27°C° 0.1 mm 4 mps 677 mmHg 52%
    01:00 +27°C° 0.1 mm 3 mps 677 mmHg 50%
    02:00 +27°C° 0.1 mm 2 mps 677 mmHg 48%
    03:00 +27°C° 0 mm 2 mps 677 mmHg 50%
    04:00 +26°C° 0 mm 2 mps 677 mmHg 53%
    05:00 +26°C° 0 mm 2 mps 677 mmHg 55%
    06:00 +26°C° 0.1 mm 2 mps 677 mmHg 56%
    07:00 +26°C° 0.1 mm 2 mps 678 mmHg 57%
    08:00 +26°C° 0.1 mm 3 mps 678 mmHg 57%
    09:00 +28°C° 0 mm 3 mps 678 mmHg 47%
    10:00 +30°C° 0 mm 3 mps 678 mmHg 37%
    11:00 +33°C° 0 mm 3 mps 679 mmHg 27%
    12:00 +35°C° 0 mm 2 mps 678 mmHg 24%
    13:00 +36°C° 0 mm 2 mps 678 mmHg 21%
    14:00 +37°C° 0 mm 1 mps 677 mmHg 18%
    15:00 +36°C° 0 mm 1 mps 677 mmHg 17%
    16:00 +36°C° 0 mm 1 mps 676 mmHg 17%
    17:00 +36°C° 0 mm 1 mps 676 mmHg 16%
    18:00 +35°C° 0 mm 2 mps 676 mmHg 19%
    19:00 +34°C° 0 mm 2 mps 676 mmHg 21%
    20:00 +31°C° 0 mm 2 mps 676 mmHg 24%
    21:00 +30°C° 0 mm 2 mps 676 mmHg 27%
    22:00 +29°C° 0 mm 2 mps 676 mmHg 30%
    23:00 +29°C° 0 mm 2 mps 677 mmHg 33%

    14 December, Thursday

    Time Temperature Precipitation Wind Pressure Humidity
    00:00 +28°C° 0 mm 2 mps 676 mmHg 31%
    01:00 +27°C° 0 mm 2 mps 676 mmHg 30%
    02:00 +27°C° 0 mm 2 mps 676 mmHg 28%
    03:00 +26°C° 0 mm 2 mps 676 mmHg 25%
    04:00 +25°C° 0 mm 2 mps 676 mmHg 21%
    05:00 +24°C° 0 mm 2 mps 677 mmHg 17%
    06:00 +26°C° 0 mm 3 mps 677 mmHg 15%
    07:00 +28°C° 0 mm 3 mps 678 mmHg 14%
    08:00 +30°C° 0 mm 3 mps 679 mmHg 13%
    09:00 +33°C° 0 mm 3 mps 679 mmHg 11%
    10:00 +35°C° 0 mm 2 mps 679 mmHg 10%
    11:00 +37°C° 0 mm 2 mps 679 mmHg 8%
    12:00 +38°C° 0 mm 3 mps 679 mmHg 8%
    13:00 +40°C° 0 mm 4 mps 678 mmHg 7%
    14:00 +41°C° 0 mm 5 mps 678 mmHg 7%
    15:00 +40°C° 0 mm 5 mps 678 mmHg 7%
    16:00 +40°C° 0 mm 5 mps 677 mmHg 7%
    17:00 +40°C° 0 mm 5 mps 677 mmHg 7%
    18:00 +36°C° 0 mm 4 mps 677 mmHg 8%
    19:00 +34°C° 0 mm 4 mps 677 mmHg 9%
    20:00 +31°C° 0 mm 3 mps 677 mmHg 11%
    21:00 +30°C° 0 mm 3 mps 677 mmHg 12%
    22:00 +29°C° 0 mm 3 mps 678 mmHg 12%
    23:00 +29°C° 0 mm 3 mps 678 mmHg 13%

    15 December, Friday

    Time Temperature Precipitation Wind Pressure Humidity
    00:00 +28°C° 0 mm 3 mps 678 mmHg 15%
    01:00 +27°C° 0 mm 3 mps 678 mmHg 17%
    02:00 +26°C° 0 mm 3 mps 678 mmHg 18%
    03:00 +25°C° 0 mm 4 mps 678 mmHg 31%
    04:00 +25°C° 0 mm 4 mps 678 mmHg 44%
    05:00 +23°C° 0 mm 5 mps 679 mmHg 57%
    06:00 +23°C° 0 mm 6 mps 679 mmHg 59%
    07:00 +23°C° 0 mm 7 mps 680 mmHg 60%
    08:00 +24°C° 0 mm 8 mps 680 mmHg 61%
    09:00 +26°C° 0 mm 8 mps 681 mmHg 57%
    10:00 +27°C° 0 mm 8 mps 681 mmHg 52%
    11:00 +28°C° 0 mm 8 mps 681 mmHg 48%
    12:00 +29°C° 0 mm 8 mps 681 mmHg 44%
    13:00 +32°C° 0 mm 7 mps 681 mmHg 40%
    14:00 +33°C° 0 mm 7 mps 681 mmHg 36%
    15:00 +32°C° 0.5 mm 6 mps 680 mmHg 37%
    16:00 +32°C° 0.5 mm 6 mps 680 mmHg 38%
    17:00 +30°C° 0.5 mm 5 mps 679 mmHg 39%
    18:00 +29°C° 2.1 mm 5 mps 680 mmHg 48%
    19:00 +27°C° 2.1 mm 4 mps 680 mmHg 57%
    20:00 +25°C° 2.1 mm 4 mps 680 mmHg 66%
    21:00 +23°C° 0.1 mm 5 mps 680 mmHg 67%
    22:00 +23°C° 0.1 mm 6 mps 681 mmHg 67%
    23:00 +23°C° 0.1 mm 7 mps 681 mmHg 68%

    16 December, Saturday

    Time Temperature Precipitation Wind Pressure Humidity
    00:00 +22°C° 0 mm 6 mps 681 mmHg 69%
    01:00 +22°C° 0 mm 6 mps 681 mmHg 70%
    02:00 +21°C° 0 mm 5 mps 680 mmHg 71%
    03:00 +21°C° 0 mm 5 mps 680 mmHg 72%
    04:00 +20°C° 0 mm 5 mps 681 mmHg 72%
    05:00 +20°C° 0 mm 5 mps 681 mmHg 73%
    06:00 +20°C° 0 mm 6 mps 681 mmHg 70%
    07:00 +21°C° 0 mm 6 mps 682 mmHg 67%
    08:00 +22°C° 0 mm 6 mps 682 mmHg 64%
    09:00 +23°C° 0 mm 6 mps 682 mmHg 60%
    10:00 +24°C° 0 mm 6 mps 682 mmHg 55%
    11:00 +27°C° 0 mm 5 mps 682 mmHg 50%
    12:00 +28°C° 0 mm 5 mps 682 mmHg 45%
    13:00 +30°C° 0 mm 5 mps 681 mmHg 41%
    14:00 +32°C° 0 mm 5 mps 681 mmHg 36%
    15:00 +33°C° 0 mm 4 mps 680 mmHg 35%
    16:00 +33°C° 0 mm 4 mps 680 mmHg 33%
    17:00 +33°C° 0 mm 4 mps 679 mmHg 32%
    18:00 +31°C° 0 mm 3 mps 680 mmHg 35%
    19:00 +29°C° 0 mm 3 mps 680 mmHg 39%
    20:00 +28°C° 0 mm 3 mps 680 mmHg 42%
    21:00 +27°C° 0 mm 3 mps 680 mmHg 44%
    22:00 +26°C° 0 mm 3 mps 680 mmHg 45%
    23:00 +26°C° 0 mm 4 mps 680 mmHg 46%
    Show more